Regional Weather Roundup
Issued by NWS

Home | Current Version | Previous Version | Text Only | Print | Product List | Glossary Off
Versions: 1 2 3 4 5 6 7 8 9 10 11 12 13 14 15 16 17 18 19 20 21 22 23 24 25 26 27 28 29 30 31 32 33 34 35 36 37 38 39 40 41 42 43 44 45 46 47 48 49 50

000
ASUS43 KDTX 260410
RWRMI
MICHIGAN HOURLY REGIONAL WEATHER ROUNDUP
NATIONAL WEATHER SERVICE DETROIT/PONTIAC MI
1100 PM EST TUE NOV 25 2014

NOTE: "FAIR" INDICATES FEW OR NO CLOUDS BELOW 12,000 FEET WITH NO
SIGNIFICANT WEATHER AND/OR OBSTRUCTION TO VISIBILITY.

MIZ047>049-052>055-059>063-066>070-074>076-081>083-260500-
SOUTHEAST LOWER MICHIGAN

CITY           SKY/WX    TMP DP  RH WIND       PRES   REMARKS
ADRIAN         CLOUDY    28  19  69 CALM      30.21S
ALMA           CLOUDY    29  23  76 SW6       30.18R WCI  23
ANN ARBOR      CLOUDY    29  19  66 CALM      30.20R
BAD AXE        CLOUDY    31  25  77 W5        30.18R WCI  26
CARO           CLOUDY    30  21  69 SW3       30.18R
DETROIT CITY   CLOUDY    33  21  61 W3        30.21S
DETROIT        CLOUDY    30  21  69 SW3       30.22R
FLINT          CLOUDY    32  22  66 W5        30.19S WCI  27
GROSSE ILE     CLOUDY    30  21  69 SW6       30.21S WCI  24
HILLSDALE      CLOUDY    27  21  78 CALM      30.18S
HOWELL         CLOUDY    29  22  75 SW5       30.18S WCI  24

CITY           SKY/WX    TMP DP  RH WIND       PRES   REMARKS
JACKSON        CLOUDY    27  20  75 W5        30.18F WCI  22
LAMBERTVILLE   CLOUDY    30  21  69 SW3       30.22F
LANSING        CLOUDY    29  20  69 S7        30.19R WCI  22
LAPEER         CLOUDY    30  22  73 W3        30.19R
MASON          CLOUDY    29  22  75 SW5       30.19S WCI  24
MONROE         CLOUDY    28  21  74 CALM      30.21S
MT. CLEMENS    CLOUDY    32  22  69 SW1       30.18S
PONTIAC        FLURRIES  29  20  69 CALM      30.17S
PORT HOPE        N/A     32  24  72 W7        30.16R WCI  26
PORT HURON     CLOUDY    32  23  69 CALM      30.20S
TRI CITIES     CLOUDY    31  21  66 SW5       30.19R WCI  26
TROY           CLOUDY    33  23  67 W3        30.21S
SAGINAW HB     CLOUDY    32  23  69 SW3       30.19R
$$
MIZ043>046-050>051-056>058-064>065-071>073-077>080-260500-
SOUTHWEST LOWER MICHIGAN

CITY           SKY/WX    TMP DP  RH WIND       PRES   REMARKS
BATTLE CREEK   CLOUDY    29  20  69 S6        30.18F WCI  23
BENTON HARBOR  CLOUDY    26  19  74 S9        30.20R WCI  17
BIG RAPIDS     CLOUDY    27  23  86 CALM      30.14R
COLDWATER      CLOUDY    28  22  76 CALM      30.19S
FREMONT        CLOUDY    27  24  91 CALM      30.16R
HOLLAND        CLOUDY    30  23  75 S9        30.18R WCI  22
GRAND RAPIDS   CLOUDY    29  22  75 S6        30.18R WCI  23
IONIA          CLOUDY    30  22  73 SW5       30.17S WCI  25
KALAMAZOO      CLOUDY    28  20  71 S12       30.19S WCI  18
LUDINGTON      CLOUDY    29  25  83 CALM      30.15S
MARSHALL       CLOUDY    27  20  76 SW3       30.18S
MOUNT PLEASANT CLOUDY    29  21  73 SW9       30.17R WCI  20
MUSKEGON       CLOUDY    30  21  69 SW8       30.18R WCI  22
SOUTH HAVEN    CLOUDY    29  22  76 S10       30.19R WCI  20
$$
MIZ016>042-260500-
NORTHERN LOWER MICHIGAN

CITY           SKY/WX    TMP DP  RH WIND       PRES   REMARKS
ALPENA         CLOUDY    27  24  89 CALM      30.15R
BEAVER ISLAND  CLOUDY    28  21  72 CALM      30.13R
BELLAIRE       CLOUDY    28  24  83 S3        30.14S
CADILLAC       CLOUDY    24  20  87 SW3       30.10S
CHARLEVOIX     CLOUDY    28  21  76 SW5       30.15R WCI  23
FRANKFORT      CLOUDY    27  21  77 W5        30.14R WCI  22
GAYLORD        CLOUDY    24  20  84 SW8       30.10R WCI  15
GRAYLING       CLOUDY    26  22  86 W5        30.12R WCI  20
HARBOR SPRINGS CLOUDY    29  24  81 S3        30.12R
HOUGHTON LAKE  CLOUDY    26  19  74 SW9       30.13R WCI  17
MANISTEE       CLOUDY    27  21  80 CALM      30.15S
OSCODA         CLOUDY    28  25  86 SW3       30.16R
PELLSTON       CLOUDY    26  23  88 CALM      30.13R
ROGERS CITY    CLOUDY    26  25  96 SW3       30.14R
TRAVERSE CITY  CLOUDY    27  22  81 VRB5      30.14R WCI  22
$$
MIZ007>008-015-260500-
EASTERN UPPER MICHIGAN

CITY           SKY/WX    TMP DP  RH WIND       PRES   REMARKS
KINROSS        CLOUDY    23  21  93 SW5       30.12R WCI  17
MACKINAC ISLAN CLOUDY    26  20  76 CALM      30.12R
NEWBERRY       PTCLDY    18  14  86 SW3       30.11R
S. S. MARIE    CLOUDY    24  19  81 SW10      30.09R WCI  14
MUNISING         N/A     11   6  81 S9        30.12R WCI  -2
$$
MIZ004>006-011>014-085-260500-
CENTRAL UPPER MICHIGAN

CITY           SKY/WX    TMP DP  RH WIND       PRES   REMARKS
MANISTIQUE     CLEAR     10   9  94 CALM      30.13R
ESCANABA       CLOUDY    12   9  85 W5        30.12R WCI   4
MENOMINEE      CLOUDY    18  12  79 W5        30.14R WCI  11
SAWYER-GWINN   FOG        6   3  89 CALM      30.07R VSB 1/2
$$
MIZ001>003-009>011-084-260500-
WESTERN UPPER MICHIGAN

CITY           SKY/WX    TMP DP  RH WIND       PRES   REMARKS
IRON MOUNTAIN  CLEAR      3  -1  83 CALM      30.08R
HOUGHTON       PTCLDY    18   9  68 S8        30.04S WCI   8
COPPER HARBOR    N/A     23  15  71 W8G17     30.06R WCI  14
IRONWOOD       PTCLDY     7   7 100 CALM      30.03R
$$

ABBREVIATIONS USED IN REMARKS
   TC - TEMPERATURE IN CELSIUS
  WCI - WIND CHILL INDEX
   HX - HEAT INDEX
  VSB - VISIBILITY



USA.gov is the U.S. government's official web portal to all federal, state and local government web resources and services.